Location: Cantaing
(50.1487°N, 3.1675°E)
Time: 06:20:17
(UTC+00:00)

GEOS 3 Rocket - Pass Details

Date: 14 January 2026
Orbit: 768 x 845 km, 115.0° (Epoch: 10 February)

Event Time Altitude Azimuth Distance (km) Brightness Sun altitude
Rises 04:55:34 0° 136° (SE) 3,311 7.5 -25.8°
Reaches altitude 10° 04:57:50 10° 136° (SE) 2,394 6.6 -25.4°
Maximum altitude 05:03:03 90° 100° (E) 830 3.5 -24.6°
Enters shadow 05:04:16 56° 317° (NW) 984 3.7 -24.4°
